Вернуться в каталог

STARLINK-37281

АктивенСвязьSSO
NORAD 68773·PAYLOAD·🇺🇸 United States

Запущен Apr 19, 2026 с Vandenberg Space Force Base

Loading…

Ближайшие Пролёты (ближайшие 24 часа)

TLE

СвежийSource: CelesTrak SupGP

Эпоха: Sep 14, 2026, 22:41 UTC

1 68773C 26086H   26257.94562500  .00035627  00000+0  11062-2 0  2577
2 68773  97.2842 293.4272 0001109  85.1138 219.9028 15.33415333    14

Отслеживайте STARLINK-37281 в реальном времени с AllMySat

Download on the App Store